When you browse on this site, cookies collect data to enhance your experience and personalize the content and advertising you see.
Visit our Privacy Policy to learn more. By continuing to use the site, you agree to this use of cookies and data.
  • In Schweiz
  • Länderverzeichnis
  • Für 7 Tage
  • Wassertemperatur
  • Wetterkarte
  • Widgets
  • user-avatar
    Anmelden

    Stündliche Wetter Xuchang

    Heute, 25 Mai, Montag

    Zeit Temperatur Niederschläge Wind Luftdruck Luftfeuchtigkeit
    00:00 +26°C° 0 mm 4 m/S 752 mmHg 35%
    01:00 +26°C° 0 mm 4 m/S 752 mmHg 34%
    02:00 +26°C° 0 mm 4 m/S 753 mmHg 33%
    03:00 +26°C° 0 mm 4 m/S 752 mmHg 36%
    04:00 +25°C° 0 mm 4 m/S 752 mmHg 39%
    05:00 +25°C° 0 mm 4 m/S 752 mmHg 42%
    06:00 +25°C° 0 mm 4 m/S 752 mmHg 41%
    07:00 +25°C° 0 mm 4 m/S 752 mmHg 39%
    08:00 +26°C° 0 mm 4 m/S 752 mmHg 38%
    09:00 +27°C° 0 mm 4 m/S 752 mmHg 34%
    10:00 +29°C° 0 mm 4 m/S 752 mmHg 30%
    11:00 +30°C° 0 mm 4 m/S 752 mmHg 27%
    12:00 +32°C° 0 mm 5 m/S 752 mmHg 26%
    13:00 +33°C° 0 mm 5 m/S 751 mmHg 25%
    14:00 +33°C° 0 mm 5 m/S 750 mmHg 24%
    15:00 +33°C° 0 mm 5 m/S 750 mmHg 26%
    16:00 +32°C° 0 mm 6 m/S 750 mmHg 28%
    17:00 +30°C° 0 mm 6 m/S 749 mmHg 30%
    18:00 +29°C° 0 mm 5 m/S 749 mmHg 36%
    19:00 +27°C° 0 mm 5 m/S 749 mmHg 41%
    20:00 +25°C° 0 mm 4 m/S 749 mmHg 47%
    21:00 +25°C° 0 mm 4 m/S 749 mmHg 50%
    22:00 +23°C° 0 mm 4 m/S 749 mmHg 53%
    23:00 +22°C° 0 mm 4 m/S 750 mmHg 55%

    Morgen, 26 Mai, Dienstag

    Zeit Temperatur Niederschläge Wind Luftdruck Luftfeuchtigkeit
    00:00 +22°C° 0 mm 4 m/S 749 mmHg 58%
    01:00 +21°C° 0 mm 4 m/S 749 mmHg 61%
    02:00 +21°C° 0 mm 5 m/S 749 mmHg 64%
    03:00 +20°C° 0 mm 3 m/S 749 mmHg 68%
    04:00 +20°C° 0 mm 2 m/S 749 mmHg 71%
    05:00 +20°C° 0 mm 1 m/S 750 mmHg 75%
    06:00 +20°C° 0 mm 3 m/S 750 mmHg 68%
    07:00 +22°C° 0 mm 4 m/S 751 mmHg 60%
    08:00 +23°C° 0 mm 6 m/S 751 mmHg 52%
    09:00 +27°C° 0 mm 5 m/S 751 mmHg 44%
    10:00 +29°C° 0 mm 5 m/S 751 mmHg 36%
    11:00 +33°C° 0 mm 5 m/S 752 mmHg 27%
    12:00 +34°C° 0 mm 5 m/S 751 mmHg 23%
    13:00 +35°C° 0 mm 4 m/S 750 mmHg 19%
    14:00 +36°C° 0 mm 4 m/S 750 mmHg 15%
    15:00 +36°C° 0 mm 3 m/S 749 mmHg 15%
    16:00 +36°C° 0 mm 2 m/S 749 mmHg 14%
    17:00 +36°C° 0 mm 2 m/S 749 mmHg 13%
    18:00 +34°C° 0 mm 2 m/S 749 mmHg 16%
    19:00 +30°C° 0 mm 3 m/S 749 mmHg 19%
    20:00 +28°C° 0 mm 3 m/S 749 mmHg 22%
    21:00 +27°C° 0 mm 3 m/S 750 mmHg 24%
    22:00 +26°C° 0 mm 3 m/S 750 mmHg 26%
    23:00 +24°C° 0 mm 2 m/S 750 mmHg 29%

    übermorgen, 27 Mai, Mittwoch

    Zeit Temperatur Niederschläge Wind Luftdruck Luftfeuchtigkeit
    00:00 +24°C° 0 mm 2 m/S 750 mmHg 30%
    01:00 +23°C° 0 mm 2 m/S 750 mmHg 32%
    02:00 +23°C° 0 mm 2 m/S 750 mmHg 33%
    03:00 +21°C° 0 mm 2 m/S 750 mmHg 34%
    04:00 +21°C° 0 mm 2 m/S 750 mmHg 34%
    05:00 +21°C° 0 mm 2 m/S 750 mmHg 35%
    06:00 +24°C° 0 mm 2 m/S 750 mmHg 31%
    07:00 +26°C° 0 mm 2 m/S 750 mmHg 27%
    08:00 +28°C° 0 mm 2 m/S 751 mmHg 23%
    09:00 +31°C° 0 mm 3 m/S 750 mmHg 19%
    10:00 +35°C° 0 mm 4 m/S 750 mmHg 14%
    11:00 +38°C° 0 mm 4 m/S 750 mmHg 10%
    12:00 +39°C° 0 mm 5 m/S 749 mmHg 9%
    13:00 +40°C° 0 mm 5 m/S 749 mmHg 9%
    14:00 +40°C° 0 mm 6 m/S 748 mmHg 9%
    15:00 +40°C° 0 mm 6 m/S 748 mmHg 8%
    16:00 +40°C° 0 mm 5 m/S 748 mmHg 8%
    17:00 +40°C° 0 mm 5 m/S 747 mmHg 8%
    18:00 +36°C° 0 mm 4 m/S 747 mmHg 9%
    19:00 +33°C° 0 mm 3 m/S 748 mmHg 11%
    20:00 +30°C° 0 mm 2 m/S 748 mmHg 12%
    21:00 +29°C° 0 mm 2 m/S 748 mmHg 13%
    22:00 +28°C° 0 mm 2 m/S 749 mmHg 14%
    23:00 +27°C° 0 mm 2 m/S 749 mmHg 16%

    28 Mai, Donnerstag

    Zeit Temperatur Niederschläge Wind Luftdruck Luftfeuchtigkeit
    00:00 +26°C° 0 mm 2 m/S 749 mmHg 16%
    01:00 +25°C° 0 mm 2 m/S 749 mmHg 17%
    02:00 +24°C° 0 mm 1 m/S 749 mmHg 18%
    03:00 +23°C° 0 mm 1 m/S 749 mmHg 19%
    04:00 +23°C° 0 mm 1 m/S 749 mmHg 20%
    05:00 +22°C° 0 mm 1 m/S 749 mmHg 21%
    06:00 +25°C° 0 mm 1 m/S 749 mmHg 19%
    07:00 +27°C° 0 mm 1 m/S 750 mmHg 17%
    08:00 +30°C° 0 mm 2 m/S 750 mmHg 15%
    09:00 +32°C° 0 mm 2 m/S 750 mmHg 13%
    10:00 +36°C° 0 mm 2 m/S 750 mmHg 11%
    11:00 +39°C° 0 mm 2 m/S 749 mmHg 9%
    12:00 +39°C° 0 mm 3 m/S 749 mmHg 8%
    13:00 +40°C° 0 mm 3 m/S 748 mmHg 8%
    14:00 +42°C° 0 mm 3 m/S 748 mmHg 7%
    15:00 +42°C° 0 mm 4 m/S 747 mmHg 7%
    16:00 +41°C° 0 mm 4 m/S 747 mmHg 7%
    17:00 +41°C° 0 mm 4 m/S 747 mmHg 7%
    18:00 +38°C° 0 mm 4 m/S 747 mmHg 10%
    19:00 +35°C° 0 mm 5 m/S 747 mmHg 13%
    20:00 +33°C° 0 mm 5 m/S 747 mmHg 16%
    21:00 +32°C° 0 mm 5 m/S 748 mmHg 20%
    22:00 +32°C° 0 mm 5 m/S 748 mmHg 24%
    23:00 +30°C° 0 mm 5 m/S 749 mmHg 29%

    29 Mai, Freitag

    Zeit Temperatur Niederschläge Wind Luftdruck Luftfeuchtigkeit
    00:00 +29°C° 0 mm 4 m/S 749 mmHg 31%
    01:00 +29°C° 0 mm 4 m/S 748 mmHg 33%
    02:00 +28°C° 0 mm 4 m/S 748 mmHg 35%
    03:00 +27°C° 0 mm 4 m/S 748 mmHg 38%
    04:00 +27°C° 0 mm 4 m/S 748 mmHg 41%
    05:00 +26°C° 0 mm 4 m/S 748 mmHg 44%
    06:00 +28°C° 0 mm 4 m/S 749 mmHg 39%
    07:00 +29°C° 0 mm 4 m/S 749 mmHg 35%
    08:00 +32°C° 0 mm 4 m/S 749 mmHg 31%
    09:00 +30°C° 0 mm 6 m/S 749 mmHg 35%
    10:00 +29°C° 0 mm 7 m/S 749 mmHg 39%
    11:00 +29°C° 0 mm 8 m/S 749 mmHg 44%
    12:00 +27°C° 0.2 mm 6 m/S 749 mmHg 51%
    13:00 +26°C° 0.2 mm 5 m/S 749 mmHg 59%
    14:00 +24°C° 0.2 mm 3 m/S 749 mmHg 67%
    15:00 +23°C° 0 mm 4 m/S 749 mmHg 66%
    16:00 +23°C° 0 mm 5 m/S 749 mmHg 65%
    17:00 +23°C° 0 mm 6 m/S 749 mmHg 64%
    18:00 +22°C° 0.3 mm 5 m/S 749 mmHg 71%
    19:00 +21°C° 0.3 mm 5 m/S 749 mmHg 77%
    20:00 +20°C° 0.3 mm 4 m/S 749 mmHg 83%
    21:00 +20°C° 0.1 mm 4 m/S 749 mmHg 84%
    22:00 +20°C° 0.1 mm 3 m/S 750 mmHg 85%
    23:00 +20°C° 0.1 mm 2 m/S 750 mmHg 85%

    30 Mai, Samstag

    Zeit Temperatur Niederschläge Wind Luftdruck Luftfeuchtigkeit
    00:00 +20°C° 0 mm 2 m/S 750 mmHg 85%
    01:00 +21°C° 0 mm 1 m/S 749 mmHg 85%
    02:00 +21°C° 0 mm 1 m/S 749 mmHg 85%
    03:00 +21°C° 0 mm 1 m/S 749 mmHg 85%
    04:00 +20°C° 0 mm 1 m/S 749 mmHg 86%
    05:00 +20°C° 0 mm 1 m/S 749 mmHg 87%
    06:00 +21°C° 0 mm 1 m/S 749 mmHg 82%
    07:00 +22°C° 0 mm 1 m/S 749 mmHg 77%
    08:00 +23°C° 0 mm 1 m/S 750 mmHg 72%
    09:00 +26°C° 0 mm 1 m/S 750 mmHg 64%
    10:00 +26°C° 0 mm 0 m/S 750 mmHg 55%
    11:00 +28°C° 0 mm 0 m/S 749 mmHg 46%
    12:00 +30°C° 0 mm 0 m/S 749 mmHg 41%
    13:00 +33°C° 0 mm 1 m/S 748 mmHg 36%
    14:00 +35°C° 0 mm 1 m/S 748 mmHg 32%
    15:00 +35°C° 0 mm 1 m/S 747 mmHg 30%
    16:00 +35°C° 0 mm 1 m/S 746 mmHg 29%
    17:00 +35°C° 0 mm 1 m/S 746 mmHg 28%
    18:00 +35°C° 0 mm 2 m/S 746 mmHg 31%
    19:00 +34°C° 0 mm 2 m/S 747 mmHg 35%
    20:00 +31°C° 0 mm 3 m/S 747 mmHg 38%
    21:00 +30°C° 0 mm 3 m/S 748 mmHg 41%
    22:00 +29°C° 0 mm 3 m/S 748 mmHg 44%
    23:00 +28°C° 0 mm 3 m/S 749 mmHg 47%
    Mehr zeigen